SAS602 EPWA-LSZH

Flight info

Callsign SAS602
Flight time 1h 41m
Altitude 38000
Route SOXER DCT VAMPU N869 AGALU DCT TOMTI DCT ASTEL DCT OKG DCT AMOSA N869 TEDGO/N0450F390 T724 RILAX
Aircraft B738/M-SDE2E3FGHIRWXY/LB1

Departure

Time 2026-05-05 09:01
Airport Warsaw Chopin Airport (EPWA)

Arrival

Time 2026-05-05 10:42
Airport Zürich Airport (LSZH)
Time Latitude Longitude Altitude Speed Heading
2026-05-05 07:23 52.16843 20.97269 351 ft 0 kts 71°
2026-05-05 08:47 52.16841 20.97259 351 ft 4 kts 74°
2026-05-05 08:47 52.16836 20.97216 355 ft 4 kts 88°
2026-05-05 08:47 52.16837 20.97173 359 ft 4 kts 102°
2026-05-05 08:48 52.16845 20.97131 359 ft 4 kts 119°
2026-05-05 08:48 52.16861 20.97098 355 ft 4 kts 147°
2026-05-05 08:48 52.16866 20.97093 359 ft 0 kts 152°
2026-05-05 08:53 52.16863 20.97095 359 ft 2 kts 152°
2026-05-05 08:54 52.16838 20.97118 356 ft 7 kts 150°
2026-05-05 08:54 52.16789 20.97163 352 ft 9 kts 151°
2026-05-05 08:54 52.16728 20.97216 351 ft 10 kts 150°
2026-05-05 08:54 52.16666 20.97270 355 ft 10 kts 152°
2026-05-05 08:55 52.16606 20.97322 350 ft 10 kts 149°
2026-05-05 08:55 52.16565 20.97407 350 ft 9 kts 117°
2026-05-05 08:55 52.16537 20.97501 358 ft 9 kts 115°
2026-05-05 08:55 52.16510 20.97594 353 ft 9 kts 115°
2026-05-05 08:56 52.16485 20.97686 356 ft 9 kts 114°
2026-05-05 08:56 52.16460 20.97776 351 ft 8 kts 114°
2026-05-05 08:56 52.16436 20.97860 354 ft 8 kts 115°
2026-05-05 08:56 52.16413 20.97944 354 ft 8 kts 114°
2026-05-05 08:57 52.16390 20.98025 357 ft 8 kts 112°
2026-05-05 08:57 52.16368 20.98105 354 ft 8 kts 115°
2026-05-05 08:57 52.16343 20.98191 359 ft 9 kts 114°
2026-05-05 08:57 52.16318 20.98282 356 ft 9 kts 114°
2026-05-05 08:58 52.16277 20.98343 355 ft 8 kts 172°
2026-05-05 08:58 52.16249 20.98335 351 ft 0 kts 198°
2026-05-05 08:59 52.16246 20.98333 351 ft 2 kts 198°
2026-05-05 08:59 52.16214 20.98308 351 ft 9 kts 210°
2026-05-05 08:59 52.16166 20.98213 352 ft 12 kts 259°
2026-05-05 09:00 52.16189 20.98081 353 ft 14 kts 295°
2026-05-05 09:00 52.16286 20.97740 351 ft 69 kts 295°
2026-05-05 09:00 52.16601 20.96619 357 ft 146 kts 295°
2026-05-05 09:00 52.17106 20.94829 565 ft 192 kts 294°
2026-05-05 09:01 52.17617 20.92734 1240 ft 210 kts 283°
2026-05-05 09:01 52.17752 20.90280 1872 ft 224 kts 271°
2026-05-05 09:01 52.17873 20.87685 2646 ft 235 kts 272°
2026-05-05 09:01 52.17892 20.84984 3376 ft 243 kts 267°
2026-05-05 09:02 52.18024 20.82169 4138 ft 258 kts 281°
2026-05-05 09:02 52.18494 20.79288 5050 ft 267 kts 282°
2026-05-05 09:02 52.18918 20.76471 5686 ft 244 kts 281°
2026-05-05 09:02 52.19282 20.73915 5944 ft 218 kts 280°
2026-05-05 09:03 52.19607 20.71638 6186 ft 195 kts 279°
2026-05-05 09:03 52.19598 20.69527 6400 ft 184 kts 248°
2026-05-05 09:03 52.19131 20.67447 6629 ft 208 kts 248°
2026-05-05 09:03 52.18606 20.65095 6884 ft 234 kts 248°
2026-05-05 09:04 52.18019 20.62459 7148 ft 259 kts 248°
2026-05-05 09:04 52.17398 20.59647 7819 ft 267 kts 248°
2026-05-05 09:04 52.16763 20.56786 8659 ft 269 kts 248°
2026-05-05 09:04 52.16126 20.53912 9519 ft 271 kts 248°
2026-05-05 09:05 52.15480 20.51008 10254 ft 277 kts 248°
2026-05-05 09:05 52.14825 20.47920 10480 ft 301 kts 250°
2026-05-05 09:05 52.14173 20.44535 10673 ft 325 kts 251°
2026-05-05 09:05 52.13498 20.40936 11078 ft 338 kts 251°
2026-05-05 09:06 52.12809 20.37248 11801 ft 341 kts 251°
2026-05-05 09:06 52.12114 20.33552 12628 ft 342 kts 251°
2026-05-05 09:06 52.11414 20.29855 13433 ft 343 kts 251°
2026-05-05 09:06 52.10946 20.27396 13921 ft 344 kts 251°
2026-05-05 09:07 52.09986 20.22376 14728 ft 351 kts 251°
2026-05-05 09:07 52.09501 20.19850 15117 ft 354 kts 251°
2026-05-05 09:07 52.08509 20.14699 15935 ft 360 kts 251°
2026-05-05 09:07 52.08011 20.12117 16335 ft 363 kts 251°
2026-05-05 09:08 52.07250 20.08181 16928 ft 367 kts 251°
2026-05-05 09:08 52.06481 20.04208 17518 ft 371 kts 252°
2026-05-05 09:08 52.05700 20.00181 18106 ft 375 kts 252°
2026-05-05 09:08 52.04911 19.96128 18692 ft 377 kts 252°
2026-05-05 09:09 52.04112 19.92067 19283 ft 378 kts 251°
2026-05-05 09:09 52.03253 19.87987 19669 ft 385 kts 250°
2026-05-05 09:09 52.02354 19.83866 20154 ft 389 kts 250°
2026-05-05 09:09 52.01443 19.79726 20694 ft 391 kts 250°
2026-05-05 09:10 52.00524 19.75549 21197 ft 394 kts 250°
2026-05-05 09:10 51.99602 19.71346 21669 ft 398 kts 250°
2026-05-05 09:10 51.98672 19.67100 22137 ft 401 kts 250°
2026-05-05 09:10 51.97734 19.62819 22609 ft 404 kts 250°
2026-05-05 09:11 51.96791 19.58512 23068 ft 407 kts 250°
2026-05-05 09:11 51.95838 19.54170 23512 ft 410 kts 250°
2026-05-05 09:11 51.94877 19.49799 23896 ft 413 kts 250°
2026-05-05 09:11 51.93911 19.45410 24309 ft 414 kts 250°
2026-05-05 09:12 51.92938 19.41003 24719 ft 416 kts 250°
2026-05-05 09:12 51.91962 19.36586 25097 ft 418 kts 250°
2026-05-05 09:12 51.90977 19.32142 25472 ft 420 kts 250°
2026-05-05 09:12 51.89986 19.27680 25838 ft 422 kts 250°
2026-05-05 09:13 51.88989 19.23199 26199 ft 424 kts 250°
2026-05-05 09:13 51.87987 19.18704 26561 ft 426 kts 250°
2026-05-05 09:13 51.86978 19.14192 26906 ft 428 kts 250°
2026-05-05 09:13 51.85968 19.09654 27241 ft 430 kts 250°
2026-05-05 09:14 51.84971 19.05082 27566 ft 432 kts 250°
2026-05-05 09:14 51.83976 19.00492 27899 ft 434 kts 250°
2026-05-05 09:14 51.82976 18.95883 28214 ft 435 kts 250°
2026-05-05 09:14 51.81966 18.91259 28525 ft 437 kts 250°
2026-05-05 09:15 51.80949 18.86622 28821 ft 439 kts 250°
2026-05-05 09:15 51.79923 18.81966 29117 ft 441 kts 250°
2026-05-05 09:15 51.78890 18.77300 29455 ft 441 kts 250°
2026-05-05 09:15 51.77859 18.72657 30015 ft 436 kts 249°
2026-05-05 09:16 51.76839 18.68070 30504 ft 432 kts 249°
2026-05-05 09:16 51.75824 18.63515 30810 ft 432 kts 250°
2026-05-05 09:16 51.74806 18.58945 31030 ft 434 kts 250°
2026-05-05 09:16 51.73781 18.54357 31308 ft 434 kts 249°
2026-05-05 09:17 51.72760 18.49791 31700 ft 432 kts 249°
2026-05-05 09:17 51.71744 18.45255 32108 ft 429 kts 249°
2026-05-05 09:17 51.70729 18.40737 32445 ft 428 kts 249°
2026-05-05 09:17 51.69715 18.36231 32731 ft 428 kts 249°
2026-05-05 09:18 51.68700 18.31733 33043 ft 427 kts 249°
2026-05-05 09:18 51.67687 18.27252 33384 ft 425 kts 249°
2026-05-05 09:18 51.66675 18.22785 33719 ft 424 kts 249°
2026-05-05 09:18 51.65665 18.18333 33992 ft 423 kts 249°
2026-05-05 09:19 51.64667 18.13947 34241 ft 423 kts 249°
2026-05-05 09:19 51.63655 18.09505 34479 ft 422 kts 249°
2026-05-05 09:19 51.62644 18.05074 34726 ft 421 kts 249°
2026-05-05 09:19 51.61633 18.00654 34965 ft 421 kts 249°
2026-05-05 09:20 51.60621 17.96235 35149 ft 421 kts 249°
2026-05-05 09:20 51.59606 17.91815 35357 ft 421 kts 249°
2026-05-05 09:20 51.58589 17.87403 35590 ft 420 kts 249°
2026-05-05 09:20 51.57569 17.83017 35828 ft 419 kts 249°
2026-05-05 09:21 51.56540 17.78628 36034 ft 419 kts 249°
2026-05-05 09:21 51.55513 17.74255 36217 ft 419 kts 249°
2026-05-05 09:21 51.54485 17.69879 36445 ft 418 kts 249°
2026-05-05 09:21 51.53459 17.65515 36653 ft 418 kts 249°
2026-05-05 09:22 51.52432 17.61150 36845 ft 417 kts 249°
2026-05-05 09:22 51.51406 17.56798 37049 ft 417 kts 249°
2026-05-05 09:22 51.50380 17.52453 37285 ft 416 kts 249°
2026-05-05 09:22 51.49358 17.48128 37519 ft 414 kts 249°
2026-05-05 09:23 51.48335 17.43809 37691 ft 414 kts 249°
2026-05-05 09:23 51.47308 17.39493 37816 ft 415 kts 249°
2026-05-05 09:23 51.46278 17.35162 37836 ft 417 kts 249°
2026-05-05 09:24 51.44209 17.26446 37854 ft 418 kts 249°
2026-05-05 09:24 51.42141 17.17753 37846 ft 417 kts 249°
2026-05-05 09:25 51.40077 17.09101 37850 ft 415 kts 249°
2026-05-05 09:25 51.38013 17.00486 37848 ft 414 kts 249°
2026-05-05 09:26 51.35950 16.91907 37849 ft 413 kts 249°
2026-05-05 09:26 51.33884 16.83353 37857 ft 411 kts 249°
2026-05-05 09:27 51.31818 16.74828 37844 ft 411 kts 249°
2026-05-05 09:27 51.29748 16.66321 37855 ft 410 kts 249°
2026-05-05 09:28 51.27674 16.57833 37866 ft 410 kts 249°
2026-05-05 09:28 51.25591 16.49341 37871 ft 411 kts 249°
2026-05-05 09:29 51.23497 16.40834 37863 ft 412 kts 249°
2026-05-05 09:29 51.21390 16.32309 37862 ft 414 kts 248°
2026-05-05 09:30 51.19271 16.23768 37868 ft 415 kts 248°
2026-05-05 09:30 51.17140 16.15210 37863 ft 416 kts 248°
2026-05-05 09:31 51.15000 16.06650 37862 ft 416 kts 248°
2026-05-05 09:31 51.12864 15.98137 37857 ft 417 kts 248°
2026-05-05 09:32 51.10704 15.89565 37873 ft 417 kts 248°
2026-05-05 09:32 51.08537 15.80994 37885 ft 418 kts 248°
2026-05-05 09:33 51.06363 15.72428 37862 ft 418 kts 248°
2026-05-05 09:33 51.04182 15.63866 37864 ft 418 kts 248°
2026-05-05 09:34 51.01997 15.55322 37861 ft 417 kts 248°
2026-05-05 09:34 50.99807 15.46788 37856 ft 417 kts 248°
2026-05-05 09:35 50.97619 15.38281 37857 ft 416 kts 248°
2026-05-05 09:35 50.94457 15.25478 37867 ft 415 kts 251°
2026-05-05 09:36 50.92696 15.16759 37862 ft 415 kts 252°
2026-05-05 09:36 50.90940 15.08038 37855 ft 415 kts 251°
2026-05-05 09:37 50.89158 14.99343 37865 ft 415 kts 251°
2026-05-05 09:37 50.87366 14.90674 37857 ft 414 kts 251°
2026-05-05 09:38 50.85326 14.82158 37851 ft 414 kts 244°
2026-05-05 09:38 50.82767 14.74023 37850 ft 413 kts 243°
2026-05-05 09:39 50.80169 14.65906 37868 ft 413 kts 243°
2026-05-05 09:39 50.77596 14.57782 37861 ft 413 kts 243°
2026-05-05 09:40 50.75037 14.49653 37851 ft 413 kts 243°
2026-05-05 09:40 50.72481 14.41536 37855 ft 413 kts 243°
2026-05-05 09:41 50.69923 14.33433 37854 ft 413 kts 243°
2026-05-05 09:41 50.67361 14.25349 37856 ft 412 kts 243°
2026-05-05 09:42 50.64811 14.17331 37848 ft 412 kts 243°
2026-05-05 09:42 50.62243 14.09279 37870 ft 411 kts 243°
2026-05-05 09:43 50.59669 14.01237 37865 ft 411 kts 243°
2026-05-05 09:43 50.57087 13.93197 37858 ft 411 kts 243°
2026-05-05 09:44 50.54501 13.85167 37857 ft 411 kts 243°
2026-05-05 09:44 50.51912 13.77156 37849 ft 411 kts 243°
2026-05-05 09:45 50.49318 13.69155 37849 ft 411 kts 242°
2026-05-05 09:45 50.46717 13.61160 37858 ft 411 kts 242°
2026-05-05 09:46 50.44110 13.53170 37851 ft 411 kts 242°
2026-05-05 09:46 50.41497 13.45186 37851 ft 412 kts 242°
2026-05-05 09:47 50.38878 13.37210 37851 ft 412 kts 242°
2026-05-05 09:47 50.36251 13.29237 37853 ft 412 kts 242°
2026-05-05 09:48 50.33617 13.21266 37851 ft 412 kts 242°
2026-05-05 09:48 50.30980 13.13309 37849 ft 412 kts 242°
2026-05-05 09:49 50.28333 13.05350 37859 ft 413 kts 242°
2026-05-05 09:49 50.25679 12.97395 37859 ft 413 kts 242°
2026-05-05 09:50 50.23018 12.89443 37857 ft 413 kts 242°
2026-05-05 09:50 50.20368 12.81550 37859 ft 413 kts 242°
2026-05-05 09:51 50.17684 12.73578 37846 ft 412 kts 242°
2026-05-05 09:51 50.15015 12.65673 37858 ft 412 kts 242°
2026-05-05 09:52 50.12795 12.59118 37853 ft 411 kts 242°
2026-05-05 09:52 50.10120 12.51237 37846 ft 411 kts 242°
2026-05-05 09:53 50.07442 12.43373 37842 ft 411 kts 241°
2026-05-05 09:53 50.04766 12.35522 37841 ft 411 kts 241°
2026-05-05 09:54 50.02099 12.27666 37837 ft 410 kts 241°
2026-05-05 09:54 49.99435 12.19828 37836 ft 410 kts 241°
2026-05-05 09:55 49.96769 12.12011 37838 ft 409 kts 241°
2026-05-05 09:55 49.94097 12.04201 37838 ft 409 kts 241°
2026-05-05 09:56 49.91425 11.96413 37839 ft 409 kts 241°
2026-05-05 09:56 49.88745 11.88629 37840 ft 409 kts 241°
2026-05-05 09:57 49.86060 11.80852 37840 ft 410 kts 240°
2026-05-05 09:57 49.83365 11.73072 37839 ft 409 kts 240°
2026-05-05 09:58 49.80668 11.65307 37836 ft 409 kts 240°
2026-05-05 09:58 49.77964 11.57547 37844 ft 410 kts 240°
2026-05-05 09:59 49.75251 11.49785 37842 ft 410 kts 240°
2026-05-05 09:59 49.72531 11.42024 37842 ft 411 kts 240°
2026-05-05 10:00 49.69801 11.34261 37850 ft 411 kts 240°
2026-05-05 10:00 49.67065 11.26502 37842 ft 412 kts 240°
2026-05-05 10:01 49.64322 11.18744 37821 ft 412 kts 239°
2026-05-05 10:01 49.61588 11.11039 37829 ft 412 kts 239°
2026-05-05 10:02 49.58830 11.03284 37828 ft 413 kts 239°
2026-05-05 10:02 49.56065 10.95529 37830 ft 413 kts 239°
2026-05-05 10:03 49.53296 10.87787 37833 ft 413 kts 239°
2026-05-05 10:03 49.50328 10.80251 37825 ft 412 kts 231°
2026-05-05 10:04 49.46387 10.73886 37863 ft 411 kts 224°
2026-05-05 10:04 49.42376 10.67609 37867 ft 411 kts 225°
2026-05-05 10:05 49.38418 10.61258 37861 ft 412 kts 226°
2026-05-05 10:05 49.34464 10.54873 37860 ft 413 kts 225°
2026-05-05 10:06 49.30406 10.48639 37866 ft 413 kts 224°
2026-05-05 10:06 49.26314 10.42444 37845 ft 414 kts 224°
2026-05-05 10:07 49.22238 10.36215 37867 ft 414 kts 225°
2026-05-05 10:07 49.18234 10.29943 37864 ft 415 kts 225°
2026-05-05 10:08 49.14203 10.23637 37863 ft 415 kts 226°
2026-05-05 10:08 49.10510 10.16837 37868 ft 417 kts 230°
2026-05-05 10:09 49.06914 10.09893 37847 ft 417 kts 230°
2026-05-05 10:09 49.03293 10.02981 37867 ft 418 kts 230°
2026-05-05 10:10 48.99644 9.96091 37852 ft 418 kts 230°
2026-05-05 10:10 48.95986 9.89213 37858 ft 418 kts 230°
2026-05-05 10:11 48.92323 9.82339 37850 ft 418 kts 229°
2026-05-05 10:11 48.88657 9.75480 37848 ft 418 kts 229°
2026-05-05 10:12 48.84989 9.68639 37856 ft 417 kts 229°
2026-05-05 10:12 48.81316 9.61807 37866 ft 418 kts 229°
2026-05-05 10:13 48.77640 9.54978 37858 ft 418 kts 229°
2026-05-05 10:13 48.73952 9.48142 37863 ft 419 kts 229°
2026-05-05 10:14 48.70244 9.41317 37858 ft 420 kts 229°
2026-05-05 10:14 48.66515 9.34509 37852 ft 420 kts 229°
2026-05-05 10:15 48.62780 9.27713 37863 ft 420 kts 227°
2026-05-05 10:15 48.58400 9.21941 37867 ft 419 kts 216°
2026-05-05 10:16 48.53684 9.16770 37857 ft 419 kts 216°
2026-05-05 10:16 48.48980 9.11570 37857 ft 419 kts 216°
2026-05-05 10:17 48.44283 9.06340 37866 ft 420 kts 216°
2026-05-05 10:17 48.39552 9.01074 37278 ft 426 kts 216°
2026-05-05 10:18 48.37172 8.98428 36671 ft 424 kts 215°
2026-05-05 10:18 48.34813 8.95808 36197 ft 419 kts 215°
2026-05-05 10:18 48.32482 8.93226 35798 ft 414 kts 215°
2026-05-05 10:18 48.30208 8.90708 35372 ft 409 kts 214°
2026-05-05 10:19 48.27920 8.88171 34773 ft 409 kts 214°
2026-05-05 10:19 48.25661 8.85662 34204 ft 409 kts 214°
2026-05-05 10:19 48.23327 8.83070 33691 ft 405 kts 214°
2026-05-05 10:19 48.21067 8.80564 32977 ft 405 kts 214°
2026-05-05 10:20 48.18792 8.78047 32193 ft 408 kts 214°
2026-05-05 10:20 48.16506 8.75525 31574 ft 407 kts 214°
2026-05-05 10:20 48.14232 8.73038 31069 ft 403 kts 213°
2026-05-05 10:20 48.12004 8.70614 30722 ft 397 kts 213°
2026-05-05 10:21 48.09816 8.68233 30676 ft 383 kts 213°
2026-05-05 10:21 48.07692 8.65924 30567 ft 372 kts 213°
2026-05-05 10:21 48.05623 8.63676 30339 ft 365 kts 213°
2026-05-05 10:21 48.03592 8.61472 30168 ft 356 kts 213°
2026-05-05 10:22 48.01616 8.59327 30110 ft 345 kts 213°
2026-05-05 10:22 47.99704 8.57252 30054 ft 335 kts 213°
2026-05-05 10:22 47.96043 8.53289 29857 ft 316 kts 212°
2026-05-05 10:23 47.94229 8.51435 29424 ft 315 kts 214°
2026-05-05 10:23 47.92759 8.49077 29383 ft 310 kts 232°
2026-05-05 10:23 47.91778 8.46148 28676 ft 326 kts 246°
2026-05-05 10:23 47.91298 8.42786 28061 ft 340 kts 260°
2026-05-05 10:24 47.91451 8.39202 27399 ft 356 kts 278°
2026-05-05 10:24 47.92402 8.35717 26769 ft 372 kts 299°
2026-05-05 10:24 47.94163 8.32825 26159 ft 385 kts 321°
2026-05-05 10:24 47.96570 8.30992 25563 ft 395 kts 343°
2026-05-05 10:25 47.99307 8.30549 24952 ft 400 kts
2026-05-05 10:25 48.01957 8.31545 24390 ft 401 kts 27°
2026-05-05 10:25 48.04322 8.33743 23833 ft 401 kts 38°
2026-05-05 10:25 48.06585 8.36226 23219 ft 405 kts 38°
2026-05-05 10:26 48.08876 8.38713 22549 ft 408 kts 37°
2026-05-05 10:26 48.11167 8.41231 21880 ft 409 kts 43°
2026-05-05 10:26 48.12911 8.44524 21183 ft 403 kts 68°
2026-05-05 10:26 48.13623 8.48514 20573 ft 395 kts 90°
2026-05-05 10:27 48.13326 8.52527 19967 ft 387 kts 110°
2026-05-05 10:27 48.12173 8.56114 19246 ft 382 kts 129°
2026-05-05 10:27 48.10308 8.58899 18550 ft 379 kts 148°
2026-05-05 10:27 48.07939 8.60588 17805 ft 378 kts 166°
2026-05-05 10:28 48.05337 8.60981 17019 ft 378 kts 185°
2026-05-05 10:28 48.02782 8.60115 16260 ft 379 kts 201°
2026-05-05 10:28 48.00505 8.58120 15524 ft 381 kts 214°
2026-05-05 10:28 47.98367 8.55783 14798 ft 381 kts 215°
2026-05-05 10:29 47.96218 8.53451 14077 ft 381 kts 214°
2026-05-05 10:29 47.94062 8.51148 13321 ft 381 kts 216°
2026-05-05 10:29 47.92214 8.48336 12510 ft 385 kts 237°
2026-05-05 10:29 47.91301 8.44596 11758 ft 389 kts 261°
2026-05-05 10:30 47.91499 8.40578 11024 ft 394 kts 284°
2026-05-05 10:30 47.92786 8.36977 10291 ft 397 kts 309°
2026-05-05 10:30 47.94956 8.34505 9864 ft 391 kts 335°
2026-05-05 10:30 47.97548 8.33593 9477 ft 381 kts
2026-05-05 10:31 48.00033 8.34312 9080 ft 369 kts 26°
2026-05-05 10:31 48.02053 8.36498 8684 ft 357 kts 51°
2026-05-05 10:31 48.03188 8.39682 8291 ft 345 kts 78°
2026-05-05 10:31 48.03226 8.43177 7917 ft 335 kts 105°
2026-05-05 10:32 48.02199 8.46214 7527 ft 327 kts 130°
2026-05-05 10:32 48.00763 8.48807 7178 ft 322 kts 127°
2026-05-05 10:32 47.99341 8.51285 6794 ft 318 kts 141°
2026-05-05 10:32 47.97365 8.52658 6416 ft 315 kts 170°
2026-05-05 10:33 47.95208 8.52390 6039 ft 314 kts 200°
2026-05-05 10:33 47.93323 8.50785 5691 ft 310 kts 208°
2026-05-05 10:33 47.91289 8.49901 5287 ft 306 kts 182°
2026-05-05 10:33 47.89176 8.49833 4939 ft 301 kts 180°
2026-05-05 10:34 47.87117 8.49722 4549 ft 292 kts 182°
2026-05-05 10:34 47.85117 8.49530 4250 ft 281 kts 184°
2026-05-05 10:34 47.83239 8.49291 4250 ft 263 kts 184°
2026-05-05 10:34 47.81480 8.49034 4227 ft 246 kts 185°
2026-05-05 10:35 47.79834 8.48775 4199 ft 230 kts 185°
2026-05-05 10:35 47.78291 8.48521 4140 ft 217 kts 185°
2026-05-05 10:35 47.76838 8.48276 4041 ft 203 kts 185°
2026-05-05 10:35 47.75485 8.48045 3974 ft 187 kts 186°
2026-05-05 10:36 47.74219 8.47826 3981 ft 181 kts 186°
2026-05-05 10:36 47.72979 8.47611 3996 ft 177 kts 185°
2026-05-05 10:36 47.71775 8.47400 3989 ft 173 kts 186°
2026-05-05 10:36 47.70583 8.47191 3982 ft 172 kts 186°
2026-05-05 10:37 47.69392 8.46981 3992 ft 173 kts 185°
2026-05-05 10:37 47.68192 8.46769 3995 ft 174 kts 186°
2026-05-05 10:37 47.67424 8.46633 3999 ft 175 kts 185°
2026-05-05 10:37 47.65797 8.46347 4006 ft 177 kts 185°
2026-05-05 10:38 47.64981 8.46203 3999 ft 178 kts 185°
2026-05-05 10:38 47.63756 8.45987 3985 ft 176 kts 185°
2026-05-05 10:38 47.62548 8.45776 3980 ft 173 kts 185°
2026-05-05 10:38 47.61359 8.45566 3990 ft 172 kts 185°
2026-05-05 10:39 47.60167 8.45359 3995 ft 173 kts 184°
2026-05-05 10:39 47.59011 8.45647 3989 ft 171 kts 148°
2026-05-05 10:39 47.57933 8.46498 3685 ft 177 kts 155°
2026-05-05 10:39 47.56851 8.47203 3486 ft 163 kts 155°
2026-05-05 10:40 47.55858 8.47877 3239 ft 152 kts 154°
2026-05-05 10:40 47.54916 8.48527 3048 ft 150 kts 154°
2026-05-05 10:40 47.53968 8.49181 2849 ft 150 kts 154°
2026-05-05 10:40 47.53021 8.49834 2655 ft 151 kts 155°
2026-05-05 10:41 47.52075 8.50486 2446 ft 149 kts 155°
2026-05-05 10:41 47.51146 8.51129 2230 ft 146 kts 156°
2026-05-05 10:41 47.50222 8.51746 2050 ft 145 kts 156°
2026-05-05 10:41 47.49299 8.52361 1850 ft 146 kts 156°
2026-05-05 10:42 47.47471 8.53663 1442 ft 146 kts 155°
2026-05-05 10:42 47.46626 8.54235 1387 ft 111 kts 148°
2026-05-05 10:42 47.46124 8.54586 1404 ft 49 kts 155°
2026-05-05 10:43 47.45995 8.54678 1397 ft 2 kts 153°
2026-05-05 10:43 47.45935 8.54745 1399 ft 15 kts 120°
2026-05-05 10:43 47.45918 8.54908 1396 ft 16 kts 94°
2026-05-05 10:43 47.45919 8.54932 1393 ft 0 kts 80°
2026-05-05 10:45 47.45919 8.54937 1393 ft 2 kts 86°
2026-05-05 10:45 47.45914 8.54972 1392 ft 6 kts 107°
2026-05-05 10:45 47.45887 8.55031 1396 ft 7 kts 140°
2026-05-05 10:46 47.45841 8.55063 1398 ft 7 kts 155°
2026-05-05 10:46 47.45796 8.55093 1394 ft 7 kts 155°
2026-05-05 10:46 47.45753 8.55123 1399 ft 7 kts 155°
2026-05-05 10:46 47.45710 8.55153 1399 ft 7 kts 154°
2026-05-05 10:47 47.45668 8.55183 1401 ft 7 kts 152°
2026-05-05 10:47 47.45628 8.55214 1399 ft 6 kts 154°
2026-05-05 10:47 47.45587 8.55241 1404 ft 6 kts 155°
2026-05-05 10:47 47.45547 8.55267 1398 ft 6 kts 155°
2026-05-05 10:48 47.45509 8.55294 1402 ft 6 kts 154°
2026-05-05 10:48 47.45471 8.55320 1403 ft 6 kts 155°
2026-05-05 10:48 47.45434 8.55346 1401 ft 6 kts 154°
2026-05-05 10:48 47.45396 8.55372 1402 ft 6 kts 155°
2026-05-05 10:49 47.45355 8.55400 1399 ft 7 kts 155°
2026-05-05 10:49 47.45303 8.55435 1396 ft 9 kts 155°
2026-05-05 10:49 47.45238 8.55481 1398 ft 11 kts 153°
2026-05-05 10:49 47.45166 8.55530 1398 ft 12 kts 155°
2026-05-05 10:50 47.45088 8.55584 1399 ft 13 kts 155°
2026-05-05 10:50 47.45004 8.55641 1401 ft 14 kts 155°
2026-05-05 10:50 47.44954 8.55741 1396 ft 13 kts 91°
2026-05-05 10:50 47.44947 8.55873 1398 ft 11 kts 94°
2026-05-05 10:51 47.44951 8.55940 1396 ft 7 kts 54°
2026-05-05 10:51 47.44992 8.55964 1396 ft 7 kts
2026-05-05 10:51 47.45006 8.55967 1396 ft 0 kts
2026-05-05 10:51 47.45010 8.55967 1396 ft 2 kts
2026-05-05 10:52 47.45023 8.55969 1399 ft 2 kts
2026-05-05 10:52 47.45035 8.55971 1396 ft 2 kts
2026-05-05 10:52 47.45038 8.55972 1396 ft 0 kts
2026-05-05 10:58 47.45037 8.55972 1396 ft 0 kts